Regional Weather Roundup
Issued by NWS

Home | Current Version | Previous Version | Graphics & Text | Print | Product List | Glossary On
Versions: 1 2 3 4 5 6 7 8 9 10 11 12 13 14 15 16 17 18 19 20 21 22 23 24 25 26 27 28 29 30 31 32 33 34 35 36 37 38 39 40 41 42 43 44 45 46 47 48 49 50
000
ASUS43 KLSX 190207
RWRMO

WEATHER SUMMARY FOR MISSOURI
NATIONAL WEATHER SERVICE SPRINGFIELD MO
800 PM CST WED JAN 18 2017

NOTE: "FAIR" INDICATES FEW OR NO CLOUDS BELOW 12,000 FEET WITH NO
       SIGNIFICANT WEATHER AND/OR OBSTRUCTIONS TO VISIBILITY.
       CURRENT SKY AND/OR WEATHER CONDITIONS ARE NOT AVAILABLE FOR
       CHILLICOTHE AND FARMINGTON.

MOZ001>031-035>038-043-044-053-054-190300-
...NORTHERN AND WESTERN MISSOURI...

CITY           SKY/WX    TMP DP  RH WIND       PRES   REMARKS
KANSAS CTY INT CLEAR     39  34  82 S10       29.98F
KANSAS C DTWN  CLEAR     42  37  82 E5        30.00F
LEE`S SUMMIT   MOCLDY    41  38  89 SE7       30.00F
ST JOSEPH      CLEAR     35  35 100 S5        29.98S
CHILLICOTHE      N/A     35  34  96 SE3       30.02S
KIRKSVILLE     FOG       30  30 100 SE5       30.02S VSB 1/4 WCI  25

$$
MOZ066>068-077>081-088>096-101>105-190300-
...SOUTHWEST MISSOURI...

CITY           SKY/WX    TMP DP  RH WIND       PRES   REMARKS
SPRINGFIELD    CLOUDY    44  41  89 SE10      30.02S
JOPLIN         CLOUDY    49  46  90 SE8       30.00F
BRANSON        CLOUDY    41  41 100 SE7       30.05F FOG

$$
MOZ032>034-039>042-045>050-055>058-069>072-190300-
...CENTRAL MISSOURI...

CITY           SKY/WX    TMP DP  RH WIND       PRES   REMARKS
COLUMBIA       CLOUDY    45  34  65 SE9       30.03F
JEFFERSON CITY CLOUDY    46  35  65 E8        30.04S
ROLLA          CLOUDY    44  37  76 SE9       30.02F
SEDALIA        CLOUDY    46  37  71 SE3       30.03S
WHITEMAN AFB   MOCLDY    45  41  86 CALM      30.00F
WARRENSBURG    MOCLDY    43  36  75 E3        30.01F
OSAGE BEACH    CLOUDY    48  37  65 S6        30.05R

$$
MOZ051-052-059>065-190300-
...EAST CENTRAL MISSOURI...

CITY           SKY/WX    TMP DP  RH WIND       PRES   REMARKS
ST LOUIS INTL  CLOUDY    44  35  70 SE8       30.08F
SPIRIT OF STL  CLOUDY    43  37  79 CALM      30.07F
ST CHARLES     CLOUDY    41  37  86 SE6       30.08F

$$
MOZ072>076-082>087-097>100-106>115-190300-
...SOUTH CENTRAL AND SOUTHEAST MISSOURI...

CITY           SKY/WX    TMP DP  RH WIND       PRES   REMARKS
CAPE GIRARDEAU CLOUDY    43  39  86 N5        30.11F
FARMINGTON     CLOUDY    41  37  86 S8        30.09F
POPLAR BLUFF   CLOUDY    44  41  89 NE5       30.10F
WEST PLAINS    CLOUDY    41  40  96 E3        30.06F

$$



USA.gov is the U.S. government's official web portal to all federal, state and local government web resources and services.